OBJECT BA, 62657

Orbit data source: Space-Track

You're viewing an Uncataloged Satellite

Recently launched and/or uncataloged satellites may have evolving metadata. Metadata may include but not limited to: Owner, Maufacturer, Bus, Motor, and Mission.

OBJECT BA, 62657 is a satellite in SSO that was launched on Tue, 14 Jan 2025 UTC launched from the Air Force Western Test Range (AFWTR). Unknown objects in Earth's orbit typically refer to objects detected orbiting the Earth but have not yet been identified or cataloged. These objects could be anything from previously untracked satellites, spent rocket stages, debris from satellite collisions, or even natural meteoroids temporarily captured by Earth's gravity.

Loading next visibility...
Identifier
62657, 2025-009BA
Orbit
SSO
Country
Flag of TBDTBD
Related business
None
Manufacturer
Unknown
Mission
Operational Civil Technology
Bus & Motor
Unknown
Mass
Unknown
Launch date (UTC)
2025-01-14 (1 year ago)
Launch vehicle
Unknown
Launch site
Air Force Western Test Range (AFWTR)
Object type
Unknown
Shape & HBR
Box, 0.1 m
Radar Cross Section
0.015 m², Medium (>0.1 m² and < 1m²)

Expand to show TLE details & history
Last TLE update: 19 hours ago

TLE from 19 hours ago
0 OBJECT BA
1 62657U 25009BA  26171.04575909  .00007333  00000-0  26276-3 0  9990
2 62657  97.3944 252.7414 0000394 211.1807 148.9410 15.29035443 79363
Epoch: 2026-06-20T01:05Z
TLE epoch observation values (Epoch: 2026-06-20T01:05:53.585Z)
Latitude
0.00001°
Longitude
-31.99789°
Altitude
482.029 km
Speed
7.624 km/s
True Right ascension
16h 50m 57s
True Declination
0° 00' 00"
Sunlit
Object was in full shadow at epoch
Visualization orbit readout
Latitude
Unknown
Longitude
Unknown
Altitude
Unknown
Speed
Unknown
Apparent Right ascension
Unknown
Apparent Declination
Unknown
Sunlit
N/A
Visualization observer readout
Local Sidereal Time
07:24:01
Azimuth
Unknown
Elevation
Unknown
Doppler factor
Unknown
Orbital elements
Apogee altitude
475.918 km
Perigee altitude
475.378 km
Semi-major axis
6,853.785 km
Eccentricity
0.00004
Inclination
97.3944°
RAAN
252.7414°
Arg. of periapsis
211.1807°
True anomaly
148.94333°
Mean anomaly
148.941°
Eccentric anomaly
148.94216°
Mean motion
3.82514 °/min
Orbital period
94.11 mins
BSTAR
0.00026276
Loading maneuver chart data...
Computing Atmospheric mass density...
Loading historical data...
Loading historical data...
Loading historical data...
Loading historical data...
Loading historical data...
Loading historical data...
Loading historical data...

Documentation

Showing up to 5 results
|